Content
SEND FEEDBACK

Daily
Averages
Monthly
Summary
United States of America

ASATDAS, GUAM


Home > North America > United States > Guam
Elevation: 612 feet     Latitude: 13 35N     Longitude: 144 56E

WEATHER
 
SELECT A DAY
Number of Records: 215,487;   Date Range: 1/1/95 - 12/16/14
 
SHARE

PRINT THIS DATA

[ ← Previous Day ]
WEATHER ALMANAC - JANUARY 20, 2013
[ Next Day → ]
[ °C ]   °F
Weather ElementAverageHighLow
Temperature78.1 °F82.4 °F (2:17 pm)75.2 °F (7:49 pm)
Dewpoint74.8 °F77 °F (12:54 pm)72 °F (3:54 am)
Humidity89.9 %100 % (7:49 pm)79 % (2:17 pm)
Barometer29.92 in30.01 in (9:15 am)29.86 in (2:54 pm)
Wind Speed17.8 mph29.9 mph (3:19 pm)
Wind Gust39.1 mph (3:19 pm)
Weather ElementAverage
Visibility7.3 mi
Wind DirectionNE (40.7 °)

Weather ElementTotal
Precipitation0.26 in
Cooling Degree Days13.8 (Base 65)
Growing Degree Days28.8 (Base 50)
Averaged from 55 records on January 20, 2013
WEATHER CONDITIONS BREAKOUT
WIND DIRECTION BREAKOUT
WEATHER BY HOUR - JANUARY 20, 2013
[ °C ]   °F
Local TimeTemperatureDewpointHumidityBarometerVisibilityWind DirectionWind SpeedGust SpeedPrecipitationEventsConditions
1:01 AM78.8 °F75.2 °F89 %29.92 in8.0 miENE (70°)10.4 mph0.01 inRainLight Rain
1:14 AM78.8 °F75.2 °F89 %29.92 in10.0 miENE (60°)11.5 mph0.01 inScattered Clouds
1:54 AM78.1 °F73.9 °F87 %29.89 in10.0 miENE (60°)10.4 mph0.01 inScattered Clouds
2:54 AM78.1 °F73.9 °F87 %29.88 in10.0 miNE (50°)13.8 mphScattered Clouds
3:54 AM77.0 °F72.0 °F84 %29.88 in10.0 miNE (50°)10.4 mphClear
4:54 AM77.0 °F73.0 °F88 %29.90 in10.0 miNE (50°)10.4 mphClear
5:54 AM78.1 °F73.9 °F87 %29.91 in10.0 miNNE (30°)9.2 mphOvercast
6:54 AM78.1 °F73.9 °F87 %29.93 in10.0 miNNE (20°)9.2 mphMostly Cloudy
7:54 AM78.1 °F73.9 °F87 %29.96 in8.0 miNNE (30°)13.8 mph0.00 inRainLight Rain
8:54 AM78.1 °F75.0 °F90 %29.98 in5.0 miNNE (20°)13.8 mph0.00 inRainLight Rain
9:04 AM77.0 °F75.2 °F94 %30.00 in2.5 miNNE (30°)12.7 mph24.2 mph0.01 inRainRain
9:15 AM78.8 °F75.2 °F89 %30.01 in8.0 miNNE (30°)12.7 mph0.01 inRainLight Rain
9:26 AM78.8 °F75.2 °F89 %30.01 in10.0 miNNE (20°)12.7 mph0.01 inOvercast
9:54 AM78.1 °F75.9 °F93 %29.99 in10.0 miNNE (20°)17.3 mph23.0 mphOvercast
10:16 AM77.0 °F73.4 °F89 %30.01 in4.0 miNNE (30°)19.6 mph24.2 mph0.00 inRainRain
10:43 AM78.8 °F75.2 °F89 %30.00 in6.0 miNNE (30°)13.8 mph0.02 inRainLight Rain
10:54 AM78.1 °F75.0 °F90 %29.98 in6.0 miNNE (30°)16.1 mph24.2 mph0.02 inOvercast
11:06 AM78.8 °F75.2 °F89 %29.99 in2.5 miNNE (30°)16.1 mph0.00 inRainRain
11:09 AM78.8 °F75.2 °F89 %29.99 in4.0 miNNE (30°)16.1 mph0.00 inRainLight Rain
11:54 AM77.0 °F75.0 °F94 %29.95 in6.0 miNNE (20°)18.4 mph24.2 mph0.01 inRainLight Rain
12:10 PM77.0 °F75.2 °F94 %29.96 in6.0 miNNE (30°)17.3 mph25.3 mph0.00 inRainLight Rain
12:34 PM78.8 °F75.2 °F89 %29.95 in7.0 miNNE (20°)20.7 mph27.6 mph0.00 inRainLight Rain
12:54 PM80.1 °F77.0 °F90 %29.92 in8.0 miNNE (30°)21.9 mph29.9 mph0.00 inRainLight Rain
1:41 PM80.6 °F75.2 °F84 %29.90 in9.0 miNNE (30°)21.9 mph27.6 mph0.00 inMostly Cloudy
1:54 PM82.0 °F75.9 °F82 %29.87 in10.0 miNNE (20°)21.9 mph26.5 mph0.00 inMostly Cloudy
2:17 PM82.4 °F75.2 °F79 %29.89 in10.0 miNNE (30°)19.6 mph28.8 mphMostly Cloudy
2:54 PM80.1 °F75.9 °F87 %29.86 in5.0 miNE (40°)21.9 mph0.00 inRainLight Rain
3:09 PM80.6 °F75.2 °F84 %29.87 in10.0 miNE (40°)26.5 mph29.9 mph0.00 inMostly Cloudy
3:19 PM80.6 °F75.2 °F84 %29.88 in4.0 miNE (50°)29.9 mph39.1 mph0.00 inRainRain
3:33 PM78.8 °F75.2 °F89 %29.87 in5.0 miNE (40°)21.9 mph32.2 mph0.00 inRainLight Rain
3:54 PM79.0 °F75.9 °F90 %29.86 in8.0 miNE (40°)18.4 mph26.5 mph0.00 inRainLight Rain
4:47 PM80.6 °F75.2 °F84 %29.88 in10.0 miNE (50°)23.0 mph28.8 mph0.00 inScattered Clouds
4:54 PM80.1 °F75.9 °F87 %29.86 in10.0 miNE (50°)23.0 mph0.00 inScattered Clouds
5:10 PM78.8 °F75.2 °F89 %29.89 in10.0 miNE (50°)15.0 mph26.5 mphMostly Cloudy
5:31 PM78.8 °F75.2 °F89 %29.89 in7.0 miNE (50°)18.4 mph25.3 mph0.00 inOvercast
5:54 PM78.1 °F75.0 °F90 %29.88 in10.0 miNE (50°)17.3 mph26.5 mph0.00 inMostly Cloudy
6:01 PM78.8 °F75.2 °F89 %29.90 in4.0 miNE (50°)23.0 mph27.6 mph0.00 inRainLight Rain
6:14 PM77.0 °F75.2 °F94 %29.90 in10.0 miNE (40°)18.4 mph0.00 inScattered Clouds
6:54 PM78.1 °F73.9 °F87 %29.89 in10.0 miNE (50°)13.8 mph0.00 inMostly Cloudy
7:03 PM78.8 °F73.4 °F83 %29.92 in7.0 miNE (50°)20.7 mph33.4 mph0.00 inRainLight Rain
7:49 PM75.2 °F75.2 °F100 %29.93 in4.0 miNE (50°)26.5 mph33.4 mph0.01 inRainLight Rain
7:54 PM75.9 °F75.0 °F97 %29.91 in7.0 miNE (50°)20.7 mph33.4 mph0.01 inRainLight Rain
8:30 PM77.0 °F75.2 °F94 %29.93 in6.0 miNE (50°)19.6 mph31.1 mph0.00 inRainLight Rain
8:41 PM77.0 °F75.2 °F94 %29.93 in10.0 miNE (50°)16.1 mph24.2 mph0.00 inScattered Clouds
8:54 PM77.0 °F75.0 °F94 %29.92 in7.0 miNE (40°)23.0 mph27.6 mph0.00 inScattered Clouds
9:05 PM77.0 °F75.2 °F94 %29.94 in4.0 miNE (50°)20.7 mph26.5 mph0.00 inRainLight Rain
9:12 PM75.2 °F73.4 °F94 %29.94 in4.0 miNE (50°)21.9 mph35.7 mph0.01 inRainLight Rain
9:54 PM77.0 °F75.0 °F94 %29.92 in7.0 miNE (50°)17.3 mph0.01 inRainLight Rain
10:19 PM77.0 °F75.2 °F94 %29.93 in7.0 miNE (40°)16.1 mph0.03 inOvercast
10:54 PM77.0 °F75.0 °F94 %29.91 in10.0 miNE (40°)16.1 mph0.03 inScattered Clouds
11:02 PM77.0 °F75.2 °F94 %29.93 in10.0 miNE (50°)17.3 mph26.5 mphMostly Cloudy
11:44 PM75.2 °F73.4 °F94 %29.93 in2.5 miNE (50°)20.7 mph31.1 mph0.01 inRainRain
11:51 PM75.2 °F73.4 °F94 %29.93 in3.0 miNE (50°)20.7 mph29.9 mph0.02 inRainLight Rain
11:54 PM75.9 °F73.9 °F94 %29.91 in4.0 miNE (50°)20.7 mph27.6 mph0.02 inRainLight Rain
11:58 PM75.2 °F73.4 °F94 %29.93 in5.0 miNE (50°)17.3 mph26.5 mph0.00 inRainLight Rain
Hourly data recorded from PGUM, located miles away from Asatdas, Guam







STORIES FROM OUR PARTNERS